Buoy 46762

sailwx.info

Track history (hours):
 
Tides and Currents Weather Stations Pressure Air Temp Water Temp Dewpoint Dewpoint Depression Visibility Wind Speed Wind Dir Waves Ship Positions

Drifting buoy 46762

Last reported at 2014-Oct-25 23:00 UTC. Time now 2014-Oct-26 00:23 UTC.
Position N 53°27' W 143°30'.

Barometer 1011.0 mb
Water temperature 10.8 ° C

Date/timePositionNaut miles runAvg speedWind from/ knotsBaromVisibWave heightAir tempDewpointWater temp
2014-Oct-25 23:00N 53°27' W 143°30'1 0.3 1011.0 10.8
2014-Oct-25 21:00N 53°28' W 143°30'0 0.0 1011.3 10.8
2014-Oct-25 20:00N 53°28' W 143°30'1 1.5 1011.1 10.8
2014-Oct-25 19:00N 53°27' W 143°32'0 0.0 1011.1 10.8
2014-Oct-25 18:00N 53°27' W 143°32'0 0.0 1011.1 10.9
2014-Oct-25 17:00N 53°27' W 143°32'1 0.7 1010.9 10.9
2014-Oct-25 16:00N 53°28' W 143°32'0 0.0 1010.8 10.8
2014-Oct-25 15:00N 53°28' W 143°32'1 0.6 1010.9 10.8
2014-Oct-25 14:00N 53°28' W 143°31'1 0.7 1010.8 10.8
2014-Oct-25 13:00N 53°28' W 143°32'0 0.0 1010.9 10.9
2014-Oct-25 12:00N 53°28' W 143°32'1 1.5 1011.2 10.9
2014-Oct-25 11:00N 53°28' W 143°30'0 0.0 1011.3 10.9
2014-Oct-25 08:00N 53°28' W 143°30'1 0.6 1011.8 10.9
2014-Oct-25 06:00N 53°29' W 143°29'1 0.6 1011.8 10.9
2014-Oct-25 05:00N 53°29' W 143°30'1 0.7 1011.7 10.9
2014-Oct-25 04:00N 53°28' W 143°31'0 0.0 1011.7 10.9
2014-Oct-25 03:00N 53°28' W 143°31'1 0.8 1011.6 10.9
2014-Oct-25 02:00N 53°29' W 143°32'3 3.4 1011.4 10.9
2014-Oct-25 01:00N 53°30' W 143°26'2 1.2 1011.3 10.9
2014-Oct-24 23:00N 53°29' W 143°29'0 0.0 1011.1 10.9
2014-Oct-24 21:00N 53°29' W 143°29'1 1.0 1011.2 10.9
2014-Oct-24 20:00N 53°29' W 143°29'0 0.0 1011.1 10.9
2014-Oct-24 19:00N 53°29' W 143°29'0 0.1 1011.0 10.9
2014-Oct-24 18:00N 53°30' W 143°29'0 0.0 1011.0 10.9
2014-Oct-24 17:00N 53°30' W 143°29'0 0.3 1010.7 11.0
2014-Oct-24 16:00N 53°30' W 143°29'2 2.4 1010.2 11.0
2014-Oct-24 15:00N 53°32' W 143°32'0 0.0 1010.1 11.0
2014-Oct-24 14:00N 53°32' W 143°32'1 0.8 1009.8 11.0
2014-Oct-24 13:00N 53°32' W 143°30'0 0.2 1009.2 11.0
2014-Oct-24 12:00N 53°32' W 143°31'2 2.3 1009.1 11.0
2014-Oct-24 11:00N 53°30' W 143°32'2 2.2 1008.8 11.0
2014-Oct-24 10:00N 53°32' W 143°30'2 2.2 1008.6 11.0
2014-Oct-24 09:00N 53°30' W 143°32'2 2.2 1008.2 11.0
2014-Oct-24 08:00N 53°32' W 143°30'0 0.0 1007.8 11.0
2014-Oct-24 07:00N 53°32' W 143°30'0 0.0 1007.2 11.0
2014-Oct-24 06:00N 53°32' W 143°30'0 0.0 1006.5 11.0
2014-Oct-24 05:00N 53°32' W 143°30'3 3.0 1005.9 11.0
2014-Oct-24 04:00N 53°33' W 143°26'0 0.0 1005.2 11.0
2014-Oct-24 03:00N 53°33' W 143°26'0 0.0 1004.2 11.0
2014-Oct-24 02:00N 53°33' W 143°26'2 2.2 1003.2 11.0
2014-Oct-24 01:00N 53°35' W 143°29'0 0.2 1002.1 11.0
2014-Oct-23 23:00N 53°34' W 143°29'0 0.0 1000.4 11.0
2014-Oct-23 22:00N 53°34' W 143°29'2 0.8 999.7 11.0
2014-Oct-23 20:00N 53°33' W 143°27'0 0.0 997.5 11.0
2014-Oct-23 19:00N 53°33' W 143°27'0 0.5 996.8 11.0
2014-Oct-23 18:00N 53°33' W 143°26'0 0.0 995.6 11.0
2014-Oct-23 17:00N 53°33' W 143°26'1 0.6 994.9 11.0
2014-Oct-23 15:00N 53°34' W 143°25'0 0.0 993.9 11.0
2014-Oct-23 14:00N 53°34' W 143°25'1 0.7 993.3 11.0
2014-Oct-23 13:00N 53°34' W 143°24'1 0.6 992.5 11.0
2014-Oct-23 12:00N 53°34' W 143°23'0 0.0 991.8 11.0
2014-Oct-23 11:00N 53°34' W 143°23'2 1.7 991.1 11.0
2014-Oct-23 10:00N 53°36' W 143°25'1 0.3 990.5 11.0
2014-Oct-23 07:00N 53°36' W 143°26'1 1.4 989.0 11.1
2014-Oct-23 06:00N 53°35' W 143°26'0 0.0 988.7 11.1
2014-Oct-23 05:00N 53°35' W 143°26'0 0.0 988.4 11.1
2014-Oct-23 04:00N 53°35' W 143°26'0 0.0 988.0 11.1
2014-Oct-23 03:00N 53°35' W 143°26'0 0.2 987.8 11.1
2014-Oct-23 01:00N 53°34' W 143°26'0 0.0 987.4 11.1
2014-Oct-23 00:00N 53°34' W 143°26'0 0.4 987.3 11.1
2014-Oct-22 23:00N 53°34' W 143°26'0 0.0 987.1 11.1
2014-Oct-22 22:00N 53°34' W 143°26'2 0.9 987.1 11.1
2014-Oct-22 20:00N 53°36' W 143°27'0 0.0 986.7 11.1
2014-Oct-22 19:00N 53°36' W 143°27'0 0.0 986.4 11.1
2014-Oct-22 17:00N 53°36' W 143°27'0 0.0 985.2 11.1
2014-Oct-22 16:00N 53°36' W 143°27'1 1.3 984.7 11.2
2014-Oct-22 15:00N 53°37' W 143°29'1 1.5 984.2 11.2
2014-Oct-22 14:00N 53°36' W 143°27'0 0.4 983.8 11.2
2014-Oct-22 13:00N 53°35' W 143°27'0 0.0 983.6 11.2
2014-Oct-22 11:00N 53°35' W 143°27'0 0.0 982.7 11.2
2014-Oct-22 10:00N 53°35' W 143°27'0 0.0 982.2 11.2
2014-Oct-22 07:00N 53°35' W 143°27'3 3.0 980.7 11.2
2014-Oct-22 06:00N 53°38' W 143°25'0 0.0 980.1 11.2
2014-Oct-22 04:00N 53°38' W 143°25'3 2.6 979.8 11.3
2014-Oct-22 03:00N 53°41' W 143°27'0 0.0 979.4 11.3
2014-Oct-22 02:00N 53°41' W 143°27'2 1.9 978.6 11.3
2014-Oct-22 01:00N 53°43' W 143°27'0 0.0 977.5 11.4
2014-Oct-22 00:00N 53°43' W 143°27'1 0.7 977.6 11.4
2014-Oct-21 22:00N 53°41' W 143°29'0 0.0 975.4 11.5
2014-Oct-21 21:00N 53°41' W 143°29'0 0.0 975.0 11.5
2014-Oct-21 20:00N 53°41' W 143°29'3 3.1 974.9 11.5
2014-Oct-21 19:00N 53°41' W 143°23'0 0.0 974.5 11.5
2014-Oct-21 18:00N 53°41' W 143°23'0 0.0 974.6 11.5
2014-Oct-21 17:00N 53°41' W 143°23'2 0.8 974.4 11.5
2014-Oct-21 15:00N 53°43' W 143°24'2 2.5 975.1 11.5
2014-Oct-21 14:00N 53°43' W 143°28'0 0.0 976.0 11.5
2014-Oct-21 13:00N 53°43' W 143°28'0 0.0 976.4 11.5
2014-Oct-21 12:00N 53°43' W 143°28'0 0.0 976.4 11.5
2014-Oct-21 10:00N 53°43' W 143°28'0 0.0 976.8 11.6
2014-Oct-21 08:00N 53°43' W 143°28'0 0.0 978.1 11.6
2014-Oct-21 07:00N 53°43' W 143°28'2 1.8 978.7 11.6
2014-Oct-21 06:00N 53°42' W 143°25'1 0.8 979.2 11.6
2014-Oct-21 05:00N 53°41' W 143°25'3 3.2 979.7 11.6
2014-Oct-21 04:00N 53°41' W 143°20'0 0.0 980.5 11.6
2014-Oct-21 03:00N 53°41' W 143°20'0 0.1 981.4 11.6
2014-Oct-21 02:00N 53°41' W 143°20'1 0.4 982.2 11.5
2014-Oct-21 00:00N 53°41' W 143°18'2 2.3 984.3 11.6
2014-Oct-20 23:00N 53°43' W 143°18'0 0.0 985.2 11.6
2014-Oct-20 22:00N 53°43' W 143°18'0 0.5 986.2 11.5
2014-Oct-20 21:00N 53°44' W 143°19'3 2.6 987.2 11.5
2014-Oct-20 20:00N 53°44' W 143°23'0 0.0 987.8 11.6
2014-Oct-20 19:00N 53°44' W 143°23'0 0.0 988.6 11.6
2014-Oct-20 18:00N 53°44' W 143°23'0 0.0 988.9 11.5
2014-Oct-20 17:00N 53°44' W 143°23'3 2.6 989.2 11.6
2014-Oct-20 16:00N 53°41' W 143°21'0 0.0 989.6 11.6
2014-Oct-20 15:00N 53°41' W 143°21'0 0.0 990.0 11.6
2014-Oct-20 14:00N 53°41' W 143°21'1 1.0 990.3 11.6
2014-Oct-20 13:00N 53°41' W 143°19'2 2.0 990.9 11.6
2014-Oct-20 12:00N 53°43' W 143°18'0 0.0 991.4 11.6
2014-Oct-20 11:00N 53°43' W 143°18'0 0.0 991.3 11.6
2014-Oct-20 10:00N 53°43' W 143°18'0 0.0 991.3 11.6
2014-Oct-20 09:00N 53°43' W 143°18'1 0.9 991.0 11.6
2014-Oct-20 08:00N 53°44' W 143°18'1 0.6 990.8 11.6
2014-Oct-20 06:00N 53°44' W 143°20'0 0.0 989.8 11.6
2014-Oct-20 05:00N 53°44' W 143°20'0 0.0 989.4 11.6
2014-Oct-20 04:00N 53°44' W 143°20'0 0.4 988.9 11.6
2014-Oct-20 03:00N 53°44' W 143°19'1 0.9 988.3 11.6
2014-Oct-20 02:00N 53°45' W 143°21'0 0.0 987.7 11.6
2014-Oct-20 01:00N 53°45' W 143°21'1 0.8 987.1 11.6
2014-Oct-20 00:00N 53°44' W 143°20'2 1.6 986.3 11.7
2014-Oct-19 23:00N 53°44' W 143°17'0 0.4 985.2 11.7
2014-Oct-19 22:00N 53°43' W 143°17'0 0.0 984.2 11.7
2014-Oct-19 21:00N 53°43' W 143°17'5 5.2 983.3 11.7
2014-Oct-19 20:00N 53°49' W 143°16'0 0.0 982.6 11.7
2014-Oct-19 19:00N 53°49' W 143°16'0 0.0 981.9 11.7
2014-Oct-19 18:00N 53°49' W 143°16'2 2.4 981.0 11.7
2014-Oct-19 17:00N 53°46' W 143°15'1 1.4 980.5 11.7
2014-Oct-19 16:00N 53°46' W 143°17'3 1.3 980.5 11.7
2014-Oct-19 14:00N 53°48' W 143°20'0 0.0 980.2 11.7
2014-Oct-19 12:00N 53°48' W 143°20'0 0.0 980.4 11.7
2014-Oct-19 11:00N 53°48' W 143°20'3 3.1 980.8 11.7
2014-Oct-19 10:00N 53°45' W 143°17'1 0.6 980.7 11.7
2014-Oct-19 08:00N 53°46' W 143°19'2 1.7 980.2 11.7
2014-Oct-19 07:00N 53°46' W 143°16'1 1.2 980.0 11.7
2014-Oct-19 06:00N 53°46' W 143°14'0 0.0 979.6 11.7
2014-Oct-19 05:00N 53°46' W 143°14'0 0.0 979.4 11.7
2014-Oct-19 04:00N 53°46' W 143°14'1 0.9 979.1 11.7
2014-Oct-19 03:00N 53°46' W 143°13'2 1.6 978.6 11.7
2014-Oct-19 02:00N 53°48' W 143°14'0 0.0 978.5 11.7
2014-Oct-19 01:00N 53°48' W 143°14'0 0.0 978.4 11.7
2014-Oct-19 00:00N 53°48' W 143°14'2 2.0 978.0 11.7
2014-Oct-18 23:00N 53°48' W 143°17'1 1.0 977.9 11.7
2014-Oct-18 22:00N 53°47' W 143°16'2 1.8 977.5 11.7
2014-Oct-18 21:00N 53°48' W 143°13'0 0.0 977.5 11.7
2014-Oct-18 20:00N 53°48' W 143°13'0 0.0 977.1 11.7
2014-Oct-18 19:00N 53°48' W 143°13'3 2.9 976.8 11.7
2014-Oct-18 18:00N 53°45' W 143°11'1 0.3 976.8 11.8
2014-Oct-18 16:00N 53°45' W 143°10'0 0.0 978.0 11.8
2014-Oct-18 15:00N 53°45' W 143°10'0 0.4 979.2 11.8
2014-Oct-18 14:00N 53°44' W 143°10'0 0.0 980.4 11.8
2014-Oct-18 13:00N 53°44' W 143°10'4 4.1 981.3 11.8
2014-Oct-18 12:00N 53°46' W 143°03'0 0.0 982.4 11.8
2014-Oct-18 11:00N 53°46' W 143°03'0 0.0 983.2 11.8
2014-Oct-18 10:00N 53°46' W 143°03'5 5.1 984.0 11.8
2014-Oct-18 09:00N 53°46' W 143°12'0 0.0 984.9 11.8
2014-Oct-18 07:00N 53°46' W 143°12'0 0.0 986.1 11.8
2014-Oct-18 05:00N 53°46' W 143°12'3 0.9 986.9 11.8
2014-Oct-18 02:00N 53°44' W 143°09'0 0.0 988.2 11.8
2014-Oct-18 00:00N 53°44' W 143°09'2 2.5 989.5 11.8
2014-Oct-17 23:00N 53°44' W 143°05'0 0.1 990.1 11.8
2014-Oct-17 22:00N 53°44' W 143°05'0 0.2 990.9 11.8
2014-Oct-17 21:00N 53°44' W 143°05'1 1.1 991.6 11.8
2014-Oct-17 20:00N 53°45' W 143°05'0 0.0 992.3 11.8
2014-Oct-17 19:00N 53°45' W 143°05'0 0.4 992.6 11.8
2014-Oct-17 18:00N 53°46' W 143°05'1 0.7 992.9 11.8
2014-Oct-17 16:00N 53°45' W 143°08'0 0.0 993.6 11.8
2014-Oct-17 15:00N 53°45' W 143°08'1 0.7 994.0 11.8
2014-Oct-17 14:00N 53°46' W 143°09'1 1.0 994.5 11.8
2014-Oct-17 13:00N 53°45' W 143°07'1 1.3 995.2 11.8
2014-Oct-17 12:00N 53°44' W 143°08'3 3.3 995.8 11.8
2014-Oct-17 11:00N 53°44' W 143°03'0 0.0 996.3 11.8
2014-Oct-17 09:00N 53°44' W 143°03'2 0.8 997.3 11.8
2014-Oct-17 07:00N 53°45' W 143°00'3 3.1 998.0 11.8
2014-Oct-17 06:00N 53°48' W 143°01'0 0.0 998.4 11.8
2014-Oct-17 05:00N 53°48' W 143°01'0 0.0 998.8 11.8
2014-Oct-17 04:00N 53°48' W 143°01'0 0.0 999.0 11.8
2014-Oct-17 03:00N 53°48' W 143°01'1 1.4 999.2 11.8
2014-Oct-17 02:00N 53°47' W 143°03'1 0.9 999.3 11.9
2014-Oct-17 01:00N 53°47' W 143°04'1 0.7 999.7 11.9
2014-Oct-17 00:00N 53°48' W 143°05'1 1.3 1000.0 11.9
2014-Oct-16 23:00N 53°47' W 143°06'2 0.9 1000.2 11.9
2014-Oct-16 21:00N 53°45' W 143°07'1 0.5 1000.4 11.9
2014-Oct-16 20:00N 53°45' W 143°07'5 5.0 1000.5 11.8
2014-Oct-16 19:00N 53°46' W 142°59'0 0.0 1000.4 11.8
2014-Oct-16 18:00N 53°46' W 142°59'4 0.7 1000.3 11.8
2014-Oct-16 12:00N 53°47' W 143°05'0 0.0 998.5 11.9
2014-Oct-16 11:00N 53°47' W 143°05'0 0.0 998.4 11.9
2014-Oct-16 09:00N 53°47' W 143°05'1 0.3 998.0 11.9
2014-Oct-16 06:00N 53°46' W 143°05'1 1.0 996.8 12.0
2014-Oct-16 05:00N 53°46' W 143°03'3 1.4 996.4 12.0
2014-Oct-16 03:00N 53°46' W 142°58'3 1.5 995.4 12.0
2014-Oct-16 01:00N 53°49' W 142°57'   994.5 12.0
Track history (hours):
 
Tides and Currents Weather Stations Pressure Air Temp Water Temp Dewpoint Dewpoint Depression Visibility Wind Speed Wind Dir Waves Ship Positions

Drifting buoy 46762

Last reported at 2014-Oct-25 23:00 UTC. Time now 2014-Oct-26 00:23 UTC.
Position N 53°27' W 143°30'.

Barometer 1011.0 mb
Water temperature 10.8 ° C

Date/timePositionNaut miles runAvg speedWind from/ knotsBaromVisibWave heightAir tempDewpointWater temp
2014-Oct-25 23:00N 53°27' W 143°30'1 0.3 1011.0 10.8
2014-Oct-25 21:00N 53°28' W 143°30'0 0.0 1011.3 10.8
2014-Oct-25 20:00N 53°28' W 143°30'1 1.5 1011.1 10.8
2014-Oct-25 19:00N 53°27' W 143°32'0 0.0 1011.1 10.8
2014-Oct-25 18:00N 53°27' W 143°32'0 0.0 1011.1 10.9
2014-Oct-25 17:00N 53°27' W 143°32'1 0.7 1010.9 10.9
2014-Oct-25 16:00N 53°28' W 143°32'0 0.0 1010.8 10.8
2014-Oct-25 15:00N 53°28' W 143°32'1 0.6 1010.9 10.8
2014-Oct-25 14:00N 53°28' W 143°31'1 0.7 1010.8 10.8
2014-Oct-25 13:00N 53°28' W 143°32'0 0.0 1010.9 10.9
2014-Oct-25 12:00N 53°28' W 143°32'1 1.5 1011.2 10.9
2014-Oct-25 11:00N 53°28' W 143°30'0 0.0 1011.3 10.9
2014-Oct-25 08:00N 53°28' W 143°30'1 0.6 1011.8 10.9
2014-Oct-25 06:00N 53°29' W 143°29'1 0.6 1011.8 10.9
2014-Oct-25 05:00N 53°29' W 143°30'1 0.7 1011.7 10.9
2014-Oct-25 04:00N 53°28' W 143°31'0 0.0 1011.7 10.9
2014-Oct-25 03:00N 53°28' W 143°31'1 0.8 1011.6 10.9
2014-Oct-25 02:00N 53°29' W 143°32'3 3.4 1011.4 10.9
2014-Oct-25 01:00N 53°30' W 143°26'2 1.2 1011.3 10.9
2014-Oct-24 23:00N 53°29' W 143°29'0 0.0 1011.1 10.9
2014-Oct-24 21:00N 53°29' W 143°29'1 1.0 1011.2 10.9
2014-Oct-24 20:00N 53°29' W 143°29'0 0.0 1011.1 10.9
2014-Oct-24 19:00N 53°29' W 143°29'0 0.1 1011.0 10.9
2014-Oct-24 18:00N 53°30' W 143°29'0 0.0 1011.0 10.9
2014-Oct-24 17:00N 53°30' W 143°29'0 0.3 1010.7 11.0
2014-Oct-24 16:00N 53°30' W 143°29'2 2.4 1010.2 11.0
2014-Oct-24 15:00N 53°32' W 143°32'0 0.0 1010.1 11.0
2014-Oct-24 14:00N 53°32' W 143°32'1 0.8 1009.8 11.0
2014-Oct-24 13:00N 53°32' W 143°30'0 0.2 1009.2 11.0
2014-Oct-24 12:00N 53°32' W 143°31'2 2.3 1009.1 11.0
2014-Oct-24 11:00N 53°30' W 143°32'2 2.2 1008.8 11.0
2014-Oct-24 10:00N 53°32' W 143°30'2 2.2 1008.6 11.0
2014-Oct-24 09:00N 53°30' W 143°32'2 2.2 1008.2 11.0
2014-Oct-24 08:00N 53°32' W 143°30'0 0.0 1007.8 11.0
2014-Oct-24 07:00N 53°32' W 143°30'0 0.0 1007.2 11.0
2014-Oct-24 06:00N 53°32' W 143°30'0 0.0 1006.5 11.0
2014-Oct-24 05:00N 53°32' W 143°30'3 3.0 1005.9 11.0
2014-Oct-24 04:00N 53°33' W 143°26'0 0.0 1005.2 11.0
2014-Oct-24 03:00N 53°33' W 143°26'0 0.0 1004.2 11.0
2014-Oct-24 02:00N 53°33' W 143°26'2 2.2 1003.2 11.0
2014-Oct-24 01:00N 53°35' W 143°29'0 0.2 1002.1 11.0
2014-Oct-23 23:00N 53°34' W 143°29'0 0.0 1000.4 11.0
2014-Oct-23 22:00N 53°34' W 143°29'2 0.8 999.7 11.0
2014-Oct-23 20:00N 53°33' W 143°27'0 0.0 997.5 11.0
2014-Oct-23 19:00N 53°33' W 143°27'0 0.5 996.8 11.0
2014-Oct-23 18:00N 53°33' W 143°26'0 0.0 995.6 11.0
2014-Oct-23 17:00N 53°33' W 143°26'1 0.6 994.9 11.0
2014-Oct-23 15:00N 53°34' W 143°25'0 0.0 993.9 11.0
2014-Oct-23 14:00N 53°34' W 143°25'1 0.7 993.3 11.0
2014-Oct-23 13:00N 53°34' W 143°24'1 0.6 992.5 11.0
2014-Oct-23 12:00N 53°34' W 143°23'0 0.0 991.8 11.0
2014-Oct-23 11:00N 53°34' W 143°23'2 1.7 991.1 11.0
2014-Oct-23 10:00N 53°36' W 143°25'1 0.3 990.5 11.0
2014-Oct-23 07:00N 53°36' W 143°26'1 1.4 989.0 11.1
2014-Oct-23 06:00N 53°35' W 143°26'0 0.0 988.7 11.1
2014-Oct-23 05:00N 53°35' W 143°26'0 0.0 988.4 11.1
2014-Oct-23 04:00N 53°35' W 143°26'0 0.0 988.0 11.1
2014-Oct-23 03:00N 53°35' W 143°26'0 0.2 987.8 11.1
2014-Oct-23 01:00N 53°34' W 143°26'0 0.0 987.4 11.1
2014-Oct-23 00:00N 53°34' W 143°26'0 0.4 987.3 11.1
2014-Oct-22 23:00N 53°34' W 143°26'0 0.0 987.1 11.1
2014-Oct-22 22:00N 53°34' W 143°26'2 0.9 987.1 11.1
2014-Oct-22 20:00N 53°36' W 143°27'0 0.0 986.7 11.1
2014-Oct-22 19:00N 53°36' W 143°27'0 0.0 986.4 11.1
2014-Oct-22 17:00N 53°36' W 143°27'0 0.0 985.2 11.1
2014-Oct-22 16:00N 53°36' W 143°27'1 1.3 984.7 11.2
2014-Oct-22 15:00N 53°37' W 143°29'1 1.5 984.2 11.2
2014-Oct-22 14:00N 53°36' W 143°27'0 0.4 983.8 11.2
2014-Oct-22 13:00N 53°35' W 143°27'0 0.0 983.6 11.2
2014-Oct-22 11:00N 53°35' W 143°27'0 0.0 982.7 11.2
2014-Oct-22 10:00N 53°35' W 143°27'0 0.0 982.2 11.2
2014-Oct-22 07:00N 53°35' W 143°27'3 3.0 980.7 11.2
2014-Oct-22 06:00N 53°38' W 143°25'0 0.0 980.1 11.2
2014-Oct-22 04:00N 53°38' W 143°25'3 2.6 979.8 11.3
2014-Oct-22 03:00N 53°41' W 143°27'0 0.0 979.4 11.3
2014-Oct-22 02:00N 53°41' W 143°27'2 1.9 978.6 11.3
2014-Oct-22 01:00N 53°43' W 143°27'0 0.0 977.5 11.4
2014-Oct-22 00:00N 53°43' W 143°27'1 0.7 977.6 11.4
2014-Oct-21 22:00N 53°41' W 143°29'0 0.0 975.4 11.5
2014-Oct-21 21:00N 53°41' W 143°29'0 0.0 975.0 11.5
2014-Oct-21 20:00N 53°41' W 143°29'3 3.1 974.9 11.5
2014-Oct-21 19:00N 53°41' W 143°23'0 0.0 974.5 11.5
2014-Oct-21 18:00N 53°41' W 143°23'0 0.0 974.6 11.5
2014-Oct-21 17:00N 53°41' W 143°23'2 0.8 974.4 11.5
2014-Oct-21 15:00N 53°43' W 143°24'2 2.5 975.1 11.5
2014-Oct-21 14:00N 53°43' W 143°28'0 0.0 976.0 11.5
2014-Oct-21 13:00N 53°43' W 143°28'0 0.0 976.4 11.5
2014-Oct-21 12:00N 53°43' W 143°28'0 0.0 976.4 11.5
2014-Oct-21 10:00N 53°43' W 143°28'0 0.0 976.8 11.6
2014-Oct-21 08:00N 53°43' W 143°28'0 0.0 978.1 11.6
2014-Oct-21 07:00N 53°43' W 143°28'2 1.8 978.7 11.6
2014-Oct-21 06:00N 53°42' W 143°25'1 0.8 979.2 11.6
2014-Oct-21 05:00N 53°41' W 143°25'3 3.2 979.7 11.6
2014-Oct-21 04:00N 53°41' W 143°20'0 0.0 980.5 11.6
2014-Oct-21 03:00N 53°41' W 143°20'0 0.1 981.4 11.6
2014-Oct-21 02:00N 53°41' W 143°20'1 0.4 982.2 11.5
2014-Oct-21 00:00N 53°41' W 143°18'2 2.3 984.3 11.6
2014-Oct-20 23:00N 53°43' W 143°18'0 0.0 985.2 11.6
2014-Oct-20 22:00N 53°43' W 143°18'0 0.5 986.2 11.5
2014-Oct-20 21:00N 53°44' W 143°19'3 2.6 987.2 11.5
2014-Oct-20 20:00N 53°44' W 143°23'0 0.0 987.8 11.6
2014-Oct-20 19:00N 53°44' W 143°23'0 0.0 988.6 11.6
2014-Oct-20 18:00N 53°44' W 143°23'0 0.0 988.9 11.5
2014-Oct-20 17:00N 53°44' W 143°23'3 2.6 989.2 11.6
2014-Oct-20 16:00N 53°41' W 143°21'0 0.0 989.6 11.6
2014-Oct-20 15:00N 53°41' W 143°21'0 0.0 990.0 11.6
2014-Oct-20 14:00N 53°41' W 143°21'1 1.0 990.3 11.6
2014-Oct-20 13:00N 53°41' W 143°19'2 2.0 990.9 11.6
2014-Oct-20 12:00N 53°43' W 143°18'0 0.0 991.4 11.6
2014-Oct-20 11:00N 53°43' W 143°18'0 0.0 991.3 11.6
2014-Oct-20 10:00N 53°43' W 143°18'0 0.0 991.3 11.6
2014-Oct-20 09:00N 53°43' W 143°18'1 0.9 991.0 11.6
2014-Oct-20 08:00N 53°44' W 143°18'1 0.6 990.8 11.6
2014-Oct-20 06:00N 53°44' W 143°20'0 0.0 989.8 11.6
2014-Oct-20 05:00N 53°44' W 143°20'0 0.0 989.4 11.6
2014-Oct-20 04:00N 53°44' W 143°20'0 0.4 988.9 11.6
2014-Oct-20 03:00N 53°44' W 143°19'1 0.9 988.3 11.6
2014-Oct-20 02:00N 53°45' W 143°21'0 0.0 987.7 11.6
2014-Oct-20 01:00N 53°45' W 143°21'1 0.8 987.1 11.6
2014-Oct-20 00:00N 53°44' W 143°20'2 1.6 986.3 11.7
2014-Oct-19 23:00N 53°44' W 143°17'0 0.4 985.2 11.7
2014-Oct-19 22:00N 53°43' W 143°17'0 0.0 984.2 11.7
2014-Oct-19 21:00N 53°43' W 143°17'5 5.2 983.3 11.7
2014-Oct-19 20:00N 53°49' W 143°16'0 0.0 982.6 11.7
2014-Oct-19 19:00N 53°49' W 143°16'0 0.0 981.9 11.7
2014-Oct-19 18:00N 53°49' W 143°16'2 2.4 981.0 11.7
2014-Oct-19 17:00N 53°46' W 143°15'1 1.4 980.5 11.7
2014-Oct-19 16:00N 53°46' W 143°17'3 1.3 980.5 11.7
2014-Oct-19 14:00N 53°48' W 143°20'0 0.0 980.2 11.7
2014-Oct-19 12:00N 53°48' W 143°20'0 0.0 980.4 11.7
2014-Oct-19 11:00N 53°48' W 143°20'3 3.1 980.8 11.7
2014-Oct-19 10:00N 53°45' W 143°17'1 0.6 980.7 11.7
2014-Oct-19 08:00N 53°46' W 143°19'2 1.7 980.2 11.7
2014-Oct-19 07:00N 53°46' W 143°16'1 1.2 980.0 11.7
2014-Oct-19 06:00N 53°46' W 143°14'0 0.0 979.6 11.7
2014-Oct-19 05:00N 53°46' W 143°14'0 0.0 979.4 11.7
2014-Oct-19 04:00N 53°46' W 143°14'1 0.9 979.1 11.7
2014-Oct-19 03:00N 53°46' W 143°13'2 1.6 978.6 11.7
2014-Oct-19 02:00N 53°48' W 143°14'0 0.0 978.5 11.7
2014-Oct-19 01:00N 53°48' W 143°14'0 0.0 978.4 11.7
2014-Oct-19 00:00N 53°48' W 143°14'2 2.0 978.0 11.7
2014-Oct-18 23:00N 53°48' W 143°17'1 1.0 977.9 11.7
2014-Oct-18 22:00N 53°47' W 143°16'2 1.8 977.5 11.7
2014-Oct-18 21:00N 53°48' W 143°13'0 0.0 977.5 11.7
2014-Oct-18 20:00N 53°48' W 143°13'0 0.0 977.1 11.7
2014-Oct-18 19:00N 53°48' W 143°13'3 2.9 976.8 11.7
2014-Oct-18 18:00N 53°45' W 143°11'1 0.3 976.8 11.8
2014-Oct-18 16:00N 53°45' W 143°10'0 0.0 978.0 11.8
2014-Oct-18 15:00N 53°45' W 143°10'0 0.4 979.2 11.8
2014-Oct-18 14:00N 53°44' W 143°10'0 0.0 980.4 11.8
2014-Oct-18 13:00N 53°44' W 143°10'4 4.1 981.3 11.8
2014-Oct-18 12:00N 53°46' W 143°03'0 0.0 982.4 11.8
2014-Oct-18 11:00N 53°46' W 143°03'0 0.0 983.2 11.8
2014-Oct-18 10:00N 53°46' W 143°03'5 5.1 984.0 11.8
2014-Oct-18 09:00N 53°46' W 143°12'0 0.0 984.9 11.8
2014-Oct-18 07:00N 53°46' W 143°12'0 0.0 986.1 11.8
2014-Oct-18 05:00N 53°46' W 143°12'3 0.9 986.9 11.8
2014-Oct-18 02:00N 53°44' W 143°09'0 0.0 988.2 11.8
2014-Oct-18 00:00N 53°44' W 143°09'2 2.5 989.5 11.8
2014-Oct-17 23:00N 53°44' W 143°05'0 0.1 990.1 11.8
2014-Oct-17 22:00N 53°44' W 143°05'0 0.2 990.9 11.8
2014-Oct-17 21:00N 53°44' W 143°05'1 1.1 991.6 11.8
2014-Oct-17 20:00N 53°45' W 143°05'0 0.0 992.3 11.8
2014-Oct-17 19:00N 53°45' W 143°05'0 0.4 992.6 11.8
2014-Oct-17 18:00N 53°46' W 143°05'1 0.7 992.9 11.8
2014-Oct-17 16:00N 53°45' W 143°08'0 0.0 993.6 11.8
2014-Oct-17 15:00N 53°45' W 143°08'1 0.7 994.0 11.8
2014-Oct-17 14:00N 53°46' W 143°09'1 1.0 994.5 11.8
2014-Oct-17 13:00N 53°45' W 143°07'1 1.3 995.2 11.8
2014-Oct-17 12:00N 53°44' W 143°08'3 3.3 995.8 11.8
2014-Oct-17 11:00N 53°44' W 143°03'0 0.0 996.3 11.8
2014-Oct-17 09:00N 53°44' W 143°03'2 0.8 997.3 11.8
2014-Oct-17 07:00N 53°45' W 143°00'3 3.1 998.0 11.8
2014-Oct-17 06:00N 53°48' W 143°01'0 0.0 998.4 11.8
2014-Oct-17 05:00N 53°48' W 143°01'0 0.0 998.8 11.8
2014-Oct-17 04:00N 53°48' W 143°01'0 0.0 999.0 11.8
2014-Oct-17 03:00N 53°48' W 143°01'1 1.4 999.2 11.8
2014-Oct-17 02:00N 53°47' W 143°03'1 0.9 999.3 11.9
2014-Oct-17 01:00N 53°47' W 143°04'1 0.7 999.7 11.9
2014-Oct-17 00:00N 53°48' W 143°05'1 1.3 1000.0 11.9
2014-Oct-16 23:00N 53°47' W 143°06'2 0.9 1000.2 11.9
2014-Oct-16 21:00N 53°45' W 143°07'1 0.5 1000.4 11.9
2014-Oct-16 20:00N 53°45' W 143°07'5 5.0 1000.5 11.8
2014-Oct-16 19:00N 53°46' W 142°59'0 0.0 1000.4 11.8
2014-Oct-16 18:00N 53°46' W 142°59'4 0.7 1000.3 11.8
2014-Oct-16 12:00N 53°47' W 143°05'0 0.0 998.5 11.9
2014-Oct-16 11:00N 53°47' W 143°05'0 0.0 998.4 11.9
2014-Oct-16 09:00N 53°47' W 143°05'1 0.3 998.0 11.9
2014-Oct-16 06:00N 53°46' W 143°05'1 1.0 996.8 12.0
2014-Oct-16 05:00N 53°46' W 143°03'3 1.4 996.4 12.0
2014-Oct-16 03:00N 53°46' W 142°58'3 1.5 995.4 12.0
2014-Oct-16 01:00N 53°49' W 142°57'   994.5 12.0

Dump ship's entire track history